540  
ASUS41 KRLX 231810  
RWRRLX  
WEST VIRGINIA REGIONAL WEATHER ROUNDUP  
NATIONAL WEATHER SERVICE CHARLESTON WV  
100 PM EST FRI FEB 23 2018  
 
NOTE: "FAIR" INDICATES FEW OR NO CLOUDS BELOW 12,000 FEET WITH NO  
SIGNIFICANT WEATHER AND/OR S TO VISIBILITY
.  
 
WVZ003-231900-  
NORTHERN PANHANDLE OF WEST VIRGINIA  
 
CITY SKY/WX TMP DP RH WIND PRES REMARKS
 
WHEELING CLOUDY 59 56 89 SW17G25 30.21S  

 
 
WVZ009-231900-  
NORTHWEST WEST VIRGINIA  
 
CITY SKY/WX TMP DP RH WIND PRES REMARKS
 
PARKERSBURG PTSUNNY 64 58 80 SW10G17 30.26F  

 
 
WVZ006-231900-  
WESTERN WEST VIRGINIA  
 
CITY SKY/WX TMP DP RH WIND PRES REMARKS
 
HUNTINGTON PTSUNNY 72 58 61 SW13G22 30.27F  

 
 
WVZ015-231900-  
WEST CENTRAL WEST VIRGINIA  
 
CITY SKY/WX TMP DP RH WIND PRES REMARKS
 
CHARLESTON CLOUDY 73 58 59 SW14G21 30.27F  

 
 
WVZ022-031-231900-  
NORTH CENTRAL WEST VIRGINIA  
 
CITY SKY/WX TMP DP RH WIND PRES REMARKS
 
CLARKSBURG PTSUNNY 72 57 59 W17G31 30.23F  
MORGANTOWN CLOUDY 67 57 70 SW8G17 30.23S  

 
 
WVZ025-035-042-045-231900-  
SOUTHERN WEST VIRGINIA  
 
CITY SKY/WX TMP DP RH WIND PRES REMARKS
 
BECKLEY PTSUNNY 71 53 52 SW10G21 30.35F  
LOGAN PTSUNNY 75 57 53 SW8 30.31F  
BLUEFIELD FAIR 72 51 47 SW10G21 30.38F  
LEWISBURG FAIR 68 56 65 S8 30.36F  

 
 
WVZ047-231900-  
NORTHERN MOUNTAINS OF WEST VIRGINIA  
 
CITY SKY/WX TMP DP RH WIND PRES REMARKS
 
ELKINS CLOUDY 70 56 61 S10G16 30.29F  

 
 
WVZ052-231900-  
EASTERN PANHANDLE OF WEST VIRGINIA  
 
CITY SKY/WX TMP DP RH WIND PRES REMARKS
 
MARTINSBURG CLOUDY 43 40 89 S6 30.41F  
PETERSBURG CLOUDY 46 43 88 CALM 30.35F  

 
 
 
CLICK HERE TO GO TO PREVIOUS BULLETINS.

The Nexlab WV Page
The Nexlab OH Page
The Nexlab KY Page
The Nexlab VA Page Main Text Page